Location: Veytaux
(46.4185°N, 6.9320°E)
Time: 09:07:50
(UTC+00:00)

USA 307 - Pass Details

Date: 27 May 2022
Orbit: 552 x 554 km, 54.0° (Epoch: 17 June)

Event Time Altitude Azimuth Distance (km) Brightness Sun altitude
Exits shadow 00:08:03 57° 121° (ESE) 659 3.0 -21.8°
Drops below altitude 10° 00:11:52 10° 63° (ENE) 1,843 6.0 -21.6°
Sets 00:14:08 0° 59° (ENE) 2,741 7.0 -21.6°
